sat.trackr.live / text

‹ back to catalog

KUIPER-00086

NORAD 64832 · 2025-151S

PAYLOAD ACTIVE UNKNOWN

§ Identity

Operator
Country
US
Launch date
2025-07-16
Launch site
AFETR
Launch vehicle
Mass (kg)
RCS (m²)

External: N2YO · Heavens-Above · Gunter

§ Orbital elements

Epoch: 2026-09-21T20:03:20.090880Z

Period
97.30 min
Inclination
51.8998°
Eccentricity
0.0000973
Mean motion
14.79931574 rev/d
Perigee alt
628.9 km
Apogee alt
630.2 km
Semi-major
7,007.7 km
B*
5.2208e-5
RAAN
150.7583°
Arg perigee
98.8363°
Mean anomaly
261.2710°
Rev number
6,438

§ Raw data

KUIPER-000861 64832U 25151S   26264.83564920  .00000177  00000+0  52208-4 0  99992 64832  51.8998 150.7583 0000973  98.8363 261.2710 14.79931574 64380

JSON: /api/v1/satellites/64832 · /tle

For live sub-satellite position, see the globe view (requires WebGL).

§ Visibility from observer

Set your observer location to see the next 7 days of passes ≥ 10°. The values pass through the URL so the page stays shareable.

No JS? Fill the form by hand. The geolocation button needs JavaScript.